Location: Newark
(24.0228°N, 104.6544°W)
Time: 22:25:02
(UTC+00:00)

N. Korean satellite - Visible Passes

Search period start: 30 September 2020 00:00
Search period end: 10 October 2020 00:00
Orbit: 455 x 503 km, 97.2° (Epoch: 29 September)

Date Brightness Start Highest point End Pass type
(mag) Time Alt. Az. Time Alt. Az. Time Alt. Az.
01 Oct 7.0 12:14:09 10° NNE 12:17:40 65° E 12:21:06 10° S visible
02 Oct 9.1 11:48:41 10° NE 11:51:35 24° E 11:54:27 10° SSE visible
05 Oct 7.9 12:03:25 10° NNE 12:06:45 42° E 12:10:01 10° S visible
06 Oct 9.7 11:38:21 10° NE 11:40:38 17° E 11:42:54 10° SE visible
08 Oct 6.6 12:18:22 10° NNE 12:21:50 79° E 12:25:16 10° S visible
09 Oct 8.8 11:52:44 10° NE 11:55:46 28° E 11:58:44 10° SSE visible
